[[{"header":{"parameterUnit":"m.s-1","parameterCategory":1,"la1":30.2991,"la2":30.254,"lo1":-89.0895,"lo2":-89.0444,"dy":0.0017,"dx":0.0017,"nx":28,"ny":28,"refTime":"2025-06-06T21:00:00:Z","depth":0,"parameterNumber":2,"parameterNumberName":"U-component_of_WINDS"},"data":[0,0,0,0,0,0,0,0,0,0,0,0,0,0,0,0,0,0,0,0,0,0,0,0,0,0,0,0,0,0,0,0,0,0,0,0,0,0,0,0,0,0,0,0,0,0,0,0,0,0,0,0,0,0,0,0,0,0,1.5935,1.5936,0,1.6061,1.6063,1.6064,1.6049,1.6047,1.6045,1.6043,1.6181,1.6186,1.6192,0,0,0,0,0,0,0,0,0,0,0,0,0,1.5693,1.5698,1.5935,1.5937,1.5938,1.6061,1.6063,1.6064,1.605,1.6047,1.6045,1.6042,1.6179,1.6186,1.6192,0,0,0,0,0,0,0,0,0,0,0,0,0,1.5807,1.5699,1.5935,1.5945,1.5947,1.6061,1.6063,1.6065,1.605,1.6047,1.6044,1.6041,1.6177,1.6185,1.6193,1.6307,0,0,1.6219,1.6223,0,0,0,0,0,0,0,0,1.58,1.5816,1.5942,1.5945,1.5947,1.6036,1.6028,1.6146,1.6051,1.6011,1.6043,1.604,1.6136,1.6147,1.6178,1.6313,1.6319,1.622,1.6225,1.6228,1.6231,0,0,0,0,0,0,0,1.5793,1.581,1.5985,1.5944,1.5947,1.5948,1.596,1.605,1.609,1.6015,1.6014,1.6028,1.6137,1.617,1.6181,1.6321,1.6219,1.6227,1.6232,1.6235,1.6562,1.6565,0,0,0,0,0,0,1.5781,1.5804,1.5981,1.5989,1.5865,1.5955,1.5969,1.6011,1.6089,1.6097,1.6031,1.6027,1.6157,1.6171,1.6186,1.6327,1.6228,1.6236,1.6241,1.6558,1.6563,1.6567,0,0,0,0,0,0,1.5775,1.5796,1.5976,1.5896,1.5919,1.5962,1.6009,1.6015,1.6048,1.6101,1.6109,1.6057,1.6155,1.6174,1.6278,1.6332,1.624,1.6248,1.6554,1.656,1.6565,1.6609,0,0,0,0,0,0,1.5768,1.5795,1.5835,1.5897,1.5923,1.6062,1.6013,1.602,1.6062,1.6058,1.6127,1.6136,1.6154,1.6265,1.6286,1.6342,1.6254,1.6549,1.6556,1.6563,1.6603,1.6615,1.6626,0,0,0,0,0,1.576,1.5843,1.5837,1.5858,1.5974,1.6065,1.608,1.6097,1.6066,1.6109,1.6144,1.6134,1.6322,1.6276,1.6299,1.6358,1.6546,1.6554,1.6562,1.6597,1.6613,1.6625,0,0,0,0,0,0,1.5788,1.5851,1.5845,1.595,1.6002,1.6062,1.6117,1.6112,1.6176,1.617,1.6192,1.6208,1.6313,1.6346,1.6293,1.6475,1.643,1.6444,1.6449,1.6464,1.6475,1.6466,1.6261,0,0,0,0,0,1.5806,1.5871,1.5924,1.6012,1.6038,1.6073,1.6113,1.6122,1.6178,1.6201,1.6243,1.63,1.6373,1.642,1.6489,1.6607,1.6625,1.666,1.6672,1.6681,1.6693,1.6763,1.678,1.6593,1.6593,1.6593,0,0,1.5845,1.5887,1.5927,1.6019,1.606,1.6131,1.6092,1.6167,1.6222,1.6213,1.6313,1.6347,1.6413,1.6525,1.6576,1.6556,1.6748,1.6691,1.6698,1.6705,1.6773,1.6791,1.6806,1.6599,1.6598,1.6597,0,0,1.5951,1.5988,1.6068,1.611,1.6173,1.6196,1.6216,1.6277,1.6299,1.6399,1.6395,1.6463,1.6586,1.6634,1.6675,1.6806,1.6801,1.6828,1.6889,1.6957,1.6971,1.6985,1.7035,1.7052,1.6839,1.684,1.684,0,1.5992,1.6095,1.611,1.6187,1.623,1.6224,1.6307,1.6349,1.6432,1.6464,1.6439,1.6597,1.664,1.6766,1.6798,1.683,1.6857,1.682,1.6967,1.6981,1.6994,1.7042,1.7061,1.6843,1.6842,1.6842,1.6842,0,1.6145,1.6217,1.6274,1.6354,1.6403,1.6483,1.6514,1.6563,1.6569,1.6596,1.6702,1.6755,1.6837,1.6867,1.6874,1.6996,1.6982,1.6962,1.6918,1.7014,1.706,1.7079,1.6847,1.6846,1.6845,1.6844,0,0,1.627,1.6359,1.638,1.6418,1.6489,1.6547,1.663,1.6708,1.6752,1.6811,1.6884,1.699,1.6974,1.702,1.7033,1.7092,1.7198,1.7066,1.7069,1.7092,1.7341,1.7357,1.7378,1.7195,1.7198,1.7201,1.7337,0,1.6387,1.6528,1.6546,1.6674,1.6745,1.6743,1.6815,1.6869,1.6899,1.6966,1.6999,1.7076,1.7046,1.7075,1.7134,1.7172,1.7249,1.7163,1.7267,1.7271,1.7252,1.7401,1.7417,1.7542,1.7355,1.7358,1.736,0,1.654,1.6602,1.6737,1.6803,1.6833,1.6897,1.6973,1.7036,1.71,1.7117,1.7171,1.7178,1.7268,1.722,1.7348,1.7289,1.7334,1.736,1.7365,1.7377,1.7322,1.742,1.7582,1.7602,1.7388,1.7385,1.7383,0,1.6622,1.674,1.6837,1.687,1.6947,1.6994,1.7029,1.7089,1.7137,1.7205,1.7237,1.7315,1.7359,1.7422,1.7451,1.7412,1.7579,1.7532,1.76,1.76,1.7636,1.7634,1.781,1.7661,1.766,1.766,1.766,0,1.6751,1.6834,1.6876,1.6936,1.7031,1.7053,1.7148,1.7183,1.7237,1.7308,1.7311,1.7378,1.7411,1.7485,1.7509,1.7614,1.7633,1.7653,1.7659,1.7654,1.7652,1.7684,1.7677,1.7665,1.7664,1.7663,1.7662,0,1.6858,1.6889,1.6995,1.7061,1.708,1.7148,1.7206,1.7267,1.7297,1.7386,1.7409,1.7457,1.7544,1.7579,1.7686,1.7703,1.7825,1.7822,1.7802,1.7805,1.7872,1.7866,1.8077,1.8108,1.7936,1.7937,1.7939,0,1.6938,1.7003,1.7076,1.7122,1.7159,1.7233,1.7282,1.7308,1.736,1.744,1.7493,1.7579,1.7649,1.7789,1.7836,1.792,1.7921,1.799,1.7934,1.7928,1.7927,1.7923,1.7932,1.8,1.8002,1.8004,1.8005,0,1.708,1.7093,1.7161,1.7238,1.7296,1.7357,1.7417,1.7456,1.7493,1.7552,1.7639,1.7694,1.7804,1.7892,1.7978,1.8019,1.8021,1.8022,1.8043,1.8039,1.8026,1.8038,1.7833,1.8017,1.8016,1.8015,1.8014,1.8014,1.7178,1.7237,1.7299,1.7377,1.7426,1.7483,1.7544,1.7583,1.7655,1.7745,1.7758,1.7853,1.7921,1.8037,1.8082,1.816,1.8143,1.8172,1.818,1.8188,1.8194,1.8012,1.8176,1.8176,1.8175,1.8175,1.8175,0,1.7322,1.7363,1.7434,1.7519,1.7582,1.7575,1.7643,1.7697,1.7781,1.7842,1.7912,1.8016,1.8103,1.8157,1.8245,1.8298,1.8301,1.8321,1.8318,1.8329,1.8202,1.8177,1.8317,1.8317,1.8317,1.8317,1.8317,1.8317,1.7404,1.7505,1.7526,1.7653,1.7694,1.7786,1.7826,1.7881,1.7931,1.8046,1.8117,1.8152,1.8213,1.8306,1.8387,1.8402,1.8435,1.8456,1.847,1.8352,1.8337,1.8323,1.8299,1.8463,1.8463,1.8591,1.8592,1.8593]},{"header":{"parameterUnit":"m.s-1","parameterCategory":1,"la1":30.2991,"la2":30.254,"lo1":-89.0895,"lo2":-89.0444,"dy":0.0017,"dx":0.0017,"nx":28,"ny":28,"refTime":"2025-06-06T21:00:00:Z","depth":0,"parameterNumber":3,"parameterNumberName":"V-component_of_WINDS"},"data":[0,0,0,0,0,0,0,0,0,0,0,0,0,0,0,0,0,0,0,0,0,0,0,0,0,0,0,0,0,0,0,0,0,0,0,0,0,0,0,0,0,0,0,0,0,0,0,0,0,0,0,0,0,0,0,0,0,0,5.3059,5.3063,0,5.3406,5.341,5.3413,5.3485,5.3483,5.348,5.3478,5.3825,5.3836,5.3848,0,0,0,0,0,0,0,0,0,0,0,0,0,5.2453,5.2464,5.3059,5.3063,5.3068,5.3405,5.341,5.3414,5.3486,5.3483,5.3479,5.3476,5.3821,5.3835,5.3849,0,0,0,0,0,0,0,0,0,0,0,0,0,5.2749,5.2467,5.3058,5.3144,5.3155,5.3404,5.341,5.3416,5.3486,5.3482,5.3479,5.3475,5.3817,5.3833,5.3851,5.4036,0,0,5.3904,5.3912,0,0,0,0,0,0,0,0,5.2732,5.2771,5.3127,5.3139,5.3152,5.3398,5.3324,5.3623,5.3487,5.336,5.3478,5.3473,5.3686,5.3714,5.3787,5.4053,5.4067,5.3906,5.3916,5.3924,5.3929,0,0,0,0,0,0,0,5.2712,5.2757,5.3196,5.3132,5.3147,5.3163,5.3201,5.3381,5.354,5.3371,5.3377,5.3418,5.3691,5.377,5.3796,5.4073,5.3905,5.3921,5.3932,5.3938,5.4509,5.4514,0,0,0,0,0,0,5.2677,5.2739,5.3185,5.3206,5.2928,5.3177,5.322,5.3323,5.3539,5.3568,5.3421,5.342,5.3742,5.3775,5.3808,5.4042,5.3924,5.394,5.395,5.4505,5.451,5.4516,0,0,0,0,0,0,5.2664,5.2716,5.3171,5.2975,5.3034,5.3192,5.3307,5.3332,5.341,5.3576,5.3604,5.3472,5.374,5.3783,5.398,5.4055,5.3948,5.3964,5.4499,5.4507,5.4513,5.4508,0,0,0,0,0,0,5.2646,5.2711,5.2784,5.2976,5.3044,5.3339,5.3312,5.3341,5.3441,5.3443,5.3632,5.3659,5.374,5.3954,5.3997,5.4077,5.3978,5.4493,5.4503,5.4511,5.4503,5.4514,5.4525,0,0,0,0,0,5.2624,5.2767,5.2788,5.2841,5.314,5.3343,5.3382,5.3475,5.3447,5.3522,5.3628,5.3653,5.4039,5.3973,5.4023,5.4109,5.4489,5.45,5.451,5.4498,5.4512,5.4524,0,0,0,0,0,0,5.2577,5.2794,5.2819,5.3029,5.3167,5.3355,5.3452,5.3487,5.3634,5.363,5.3736,5.3778,5.3969,5.4058,5.3981,5.43,5.4262,5.4283,5.4236,5.4251,5.4261,5.4237,5.3992,0,0,0,0,0,5.2592,5.2741,5.2921,5.3089,5.3157,5.3292,5.3384,5.3445,5.3591,5.365,5.377,5.391,5.4063,5.4161,5.4311,5.4515,5.4558,5.4599,5.4609,5.4618,5.4635,5.4751,5.4772,5.455,5.455,5.455,0,0,5.2622,5.2759,5.2846,5.3083,5.3197,5.3349,5.3341,5.35,5.3613,5.3673,5.3868,5.3961,5.4123,5.4325,5.442,5.4405,5.4705,5.4631,5.4636,5.465,5.4764,5.4785,5.4803,5.4557,5.4556,5.4555,0,0,5.2756,5.2874,5.3028,5.3144,5.3319,5.3408,5.3444,5.3628,5.3693,5.3891,5.3939,5.4073,5.4334,5.4449,5.4541,5.4719,5.4748,5.4765,5.4822,5.4934,5.4952,5.4968,5.5033,5.5055,5.4781,5.4781,5.4781,0,5.2772,5.3004,5.3102,5.3262,5.3364,5.3427,5.3584,5.369,5.3903,5.3972,5.3953,5.4283,5.4397,5.4627,5.4671,5.4743,5.4788,5.4745,5.4942,5.4959,5.4975,5.5039,5.5063,5.4782,5.4782,5.4782,5.4782,0,5.3015,5.3175,5.3278,5.3486,5.36,5.3756,5.3877,5.398,5.403,5.412,5.4321,5.4459,5.464,5.4698,5.4747,5.4936,5.4922,5.4921,5.4885,5.4996,5.5057,5.5082,5.4784,5.4783,5.4783,5.4783,0,0,5.3129,5.3392,5.3428,5.3525,5.3722,5.3847,5.4005,5.4185,5.4272,5.4416,5.4552,5.4771,5.4773,5.4877,5.4939,5.5037,5.5172,5.5025,5.503,5.5049,5.5391,5.5392,5.5419,5.5192,5.5197,5.5201,5.5378,0,5.3289,5.3578,5.3672,5.3912,5.4062,5.4124,5.4263,5.4398,5.4487,5.4624,5.4721,5.4877,5.4865,5.4929,5.5029,5.5135,5.5243,5.5123,5.5319,5.5325,5.5279,5.5451,5.5452,5.5613,5.5402,5.5407,5.541,0,5.3514,5.3666,5.3922,5.4104,5.4169,5.4293,5.4465,5.4596,5.4751,5.4808,5.4926,5.4981,5.5148,5.5101,5.5332,5.5249,5.5334,5.5398,5.5406,5.543,5.5375,5.548,5.5666,5.5691,5.5448,5.5445,5.5442,0,5.3574,5.3842,5.4032,5.4111,5.4327,5.4412,5.4505,5.4656,5.4758,5.4908,5.4975,5.514,5.5231,5.5357,5.5454,5.5411,5.5677,5.5638,5.573,5.5727,5.5785,5.578,5.5989,5.5835,5.5835,5.5835,5.5834,0,5.3744,5.3898,5.4062,5.4178,5.4353,5.4458,5.4628,5.4724,5.4858,5.4992,5.5054,5.5179,5.5299,5.5439,5.5516,5.5697,5.5736,5.5787,5.5806,5.5783,5.5777,5.5842,5.5834,5.5841,5.584,5.5838,5.5837,0,5.3841,5.3957,5.4168,5.4356,5.4406,5.4527,5.4687,5.4801,5.4892,5.5062,5.5108,5.525,5.5419,5.5528,5.5741,5.5793,5.5991,5.6005,5.594,5.5949,5.6036,5.6027,5.6295,5.6336,5.6153,5.6154,5.6156,0,5.3943,5.4064,5.4266,5.4363,5.4457,5.4611,5.4717,5.4824,5.4931,5.5117,5.5209,5.5382,5.5526,5.5791,5.5913,5.6076,5.6097,5.6179,5.6121,5.6095,5.61,5.6093,5.6106,5.6189,5.619,5.6191,5.6192,0,5.4112,5.4164,5.4316,5.4488,5.4613,5.4753,5.4893,5.4967,5.5098,5.5215,5.539,5.5502,5.5722,5.5893,5.6068,5.6161,5.6199,5.621,5.624,5.6219,5.6177,5.6203,5.5968,5.6203,5.6202,5.6201,5.6201,5.62,5.4217,5.4328,5.4489,5.4656,5.4773,5.4903,5.5021,5.5128,5.5277,5.5466,5.5519,5.5702,5.5853,5.6093,5.6189,5.6332,5.6322,5.6365,5.6377,5.6387,5.6389,5.6153,5.6364,5.6364,5.6363,5.6363,5.6363,0,5.4391,5.4498,5.465,5.4846,5.4978,5.5004,5.516,5.5268,5.5429,5.5568,5.571,5.5911,5.6077,5.6212,5.6383,5.6472,5.6493,5.6513,5.6508,5.653,5.6386,5.6345,5.6493,5.6493,5.6493,5.6493,5.6493,5.6493,5.4497,5.4688,5.4759,5.5009,5.5114,5.5296,5.5383,5.5503,5.5615,5.5838,5.5978,5.6066,5.6204,5.6385,5.6539,5.6574,5.6634,5.6651,5.669,5.6554,5.6539,5.6526,5.6487,5.6663,5.6663,5.6822,5.6823,5.6824]}]]